Powrót do katalogu

OPS 4682 DEB

AktywnyPO
NORAD 38396·DEBRIS·🇺🇸 United States

Wystrzelony Apr 3, 1965 z Vandenberg Space Force Base

Loading…

Następne Przeloty (najbliższe 24 godziny)

TLE

ŚwieżeSource: Space-Track

Epoka: Sep 14, 2026, 13:19 UTC

1 38396U 65027CZ  26257.55548556  .00000388  00000-0  13003-2 0  9992
2 38396  90.2593  13.4059 0037475 213.3908 146.4849 12.97947897674795

Śledź OPS 4682 DEB w czasie rzeczywistym z AllMySat

Download on the App Store